CW7485 Weather Reports


time (UTC)temp
C
wind
direction
speed
KPH
gust
KPH
rain 1hr
cm
rain 24hr
cm
rain mn
cm
humidity
%
barometer
mb
20260504044535 8 0 0.0 0.0 0.00 0.28 0.28 83 1005.3
20260504043040 8 0 0.0 0.0 0.00 0.28 0.28 81 1005.4
20260504041528 8 0 0.0 0.0 0.00 0.28 0.28 80 1005.3
20260504040028 9 0 0.0 0.0 0.00 0.28 0.28 78 1005.4
20260504034534 10 0 0.0 0.0 0.00 0.28 0.28 75 1005.4
20260504033029 10 0 0.0 1.6 0.00 0.28 0.28 74 1005.4
20260504031530 10 0 0.0 0.0 0.00 0.28 0.28 71 1005.4
20260504030030 11 0 0.0 0.0 0.00 0.28 0.28 69 1005.4
20260504024530 12 0 0.0 0.0 0.00 0.28 0.28 71 1005.2
20260504023031 13 0 0.0 0.0 0.00 0.28 0.28 59 1005.2
20260504021534 14 0 0.0 0.0 0.00 0.28 0.28 55 1005.1
20260504020037 15 0 0.0 0.0 0.00 0.28 0.28 48 1004.9
20260504014536 16 0 0.0 0.0 0.00 0.28 0.28 45 1004.8
20260504013031 17 0 0.0 0.0 0.00 0.28 0.28 42 1004.6
20260504011533 18 0 0.0 1.6 0.00 0.28 0.28 39 1004.5
20260504010030 20 259 0.0 4.8 0.00 0.28 0.28 38 1004.4
20260504004534 20 225 1.6 4.8 0.00 0.28 0.28 37 1004.3
20260504003032 21 239 1.6 9.7 0.00 0.28 0.28 36 1004.0
20260504001535 21 264 6.4 12.9 0.00 0.28 0.28 34 1003.9
20260504000029 22 257 4.8 12.9 0.00 0.28 0.28 37 1003.8
20260503234530 22 243 6.4 14.5 0.00 0.28 0.28 36 1003.8
20260503233030 23 240 4.8 14.5 0.00 0.28 0.28 36 1003.8
20260503231532 23 270 6.4 14.5 0.00 0.28 0.28 36 1003.7
20260503230032 23 253 6.4 17.7 0.00 0.28 0.28 36 1003.8
20260503224529 23 281 4.8 16.1 0.00 0.28 0.28 38 1003.7
20260503223031 23 266 6.4 16.1 0.00 0.28 0.28 37 1003.7
20260503221533 22 243 6.4 22.5 0.00 0.28 0.28 37 1003.7
20260503220029 22 227 4.8 17.7 0.00 0.28 0.28 39 1003.9
20260503214540 22 267 3.2 14.5 0.00 0.28 0.28 44 1003.9
20260503213031 22 221 9.7 19.3 0.00 0.28 0.28 42 1004.0
20260503211534 22 264 9.7 22.5 0.00 0.28 0.28 43 1004.0
20260503210033 21 276 8.0 20.9 0.00 0.28 0.28 43 1004.3
20260503204534 21 278 9.7 24.1 0.00 0.28 0.28 45 1004.5
20260503203036 21 273 8.0 19.3 0.00 0.28 0.28 44 1004.9
20260503201532 21 217 6.4 16.1 0.00 0.28 0.28 44 1005.1
20260503200037 20 201 6.4 20.9 0.00 0.28 0.28 45 1005.3
20260503194532 20 158 6.4 20.9 0.00 0.28 0.28 48 1005.6
20260503193036 20 281 6.4 17.7 0.00 0.28 0.28 46 1005.7
20260503191531 19 236 11.3 27.4 0.00 0.28 0.28 49 1006.0
20260503190032 18 217 12.9 29.0 0.00 0.28 0.28 47 1006.1
20260503184540 18 236 11.3 29.0 0.00 0.28 0.28 49 1006.3
20260503183035 18 224 9.7 24.1 0.00 0.28 0.28 48 1006.5
20260503181530 18 188 8.0 20.9 0.00 0.28 0.28 50 1006.6
20260503180044 17 253 9.7 24.1 0.00 0.28 0.28 51 1006.7
20260503174543 17 293 11.3 24.1 0.00 0.28 0.28 52 1007.0
20260503173040 17 260 9.7 32.2 0.00 0.28 0.28 51 1007.0
20260503171529 16 255 14.5 35.4 0.00 0.28 0.28 51 1007.3
20260503081538 9 233 6.4 14.5 0.00 0.00 0.00 56 1012.5